Powrót do katalogu

NOAA 16 DEB

AktywnyPO
NORAD 42394·DEBRIS·🇺🇸 United States

Wystrzelony Sep 21, 2000 z Vandenberg Space Force Base

Loading…

Następne Przeloty (najbliższe 24 godziny)

TLE

ŚwieżeSource: Space-Track

Epoka: Sep 14, 2026, 10:17 UTC

1 42394U 00055SN  26257.42905977  .00004927  00000-0  10357-2 0  9997
2 42394  98.9646 125.8690 0030201 173.9446 186.2122 14.59792867548622

Śledź NOAA 16 DEB w czasie rzeczywistym z AllMySat

Download on the App Store